Theta_e
290 291 291 290 290 290 290 290 290 290 290 290 290 290 290 290 290 290 291 291 291 291 291 291 291 291 291 291 291 292 292 292 292 293 293 294 294 295 296 297 299 301
290 290 290 290 290 290 290 289 289 289 289 290 290 290 290 290 290 290 290 290 290 290 290 290 290 290 290 291 290 291 291 291 291 291 291 291 292 292 293 293 294 296
289 289 289 289 289 289 289 289 289 289 289 289 289 289 289 289 289 289 289 290 290 290 290 290 290 290 290 290 290 290 290 290 290 290 290 290 290 291 291 291 291 292
288 288 288 289 289 289 289 289 289 289 289 289 289 288 289 289 289 289 289 289 289 289 289 289 289 290 289 290 290 290 290 290 290 290 290 290 290 290 290 290 290 290
288 288 288 288 288 288 288 288 288 289 288 288 288 288 288 288 288 288 288 288 288 288 289 289 289 289 289 289 289 289 289 289 289 289 289 289 289 289 289 289 290 290
287 287 287 288 288 287 288 288 288 288 288 288 288 288 288 288 288 288 288 288 288 288 288 288 288 288 288 288 288 288 288 288 288 288 289 289 289 289 289 289 289 289
287 287 287 287 287 287 288 288 288 288 288 288 288 287 288 288 288 288 288 288 288 287 288 287 287 287 287 287 287 287 287 287 287 288 288 288 288 288 288 288 288 288
287 287 287 287 287 287 287 287 287 288 287 287 287 287 287 287 287 287 287 287 287 287 287 287 287 287 287 287 287 287 287 287 287 287 287 287 287 287 288 288 288 287
288 287 287 287 287 287 287 287 287 287 286 286 286 286 286 286 286 286 286 286 286 286 286 286 286 286 286 286 286 286 286 286 286 286 286 286 286 286 287 287 287 287
288 288 288 288 288 287 287 286 286 286 286 285 285 285 285 285 285 285 285 286 286 285 286 285 285 285 285 285 285 285 285 285 285 285 285 285 285 285 285 285 286 286
289 288 288 288 288 287 286 286 285 285 285 285 285 285 285 285 284 284 285 285 285 285 286 286 285 285 285 285 285 285 285 285 285 285 285 285 285 284 284 284 284 284
289 288 288 288 288 287 286 286 285 285 285 285 285 285 285 285 284 284 285 285 285 285 286 286 286 286 286 286 285 285 285 285 285 285 285 284 284 284 284 284 284 283
288 288 288 288 288 288 287 286 286 285 285 285 285 285 285 285 285 285 285 285 285 285 285 285 285 285 286 286 286 285 285 285 285 285 285 285 284 284 284 284 283 283
288 288 288 288 288 288 287 287 286 286 286 285 285 285 285 286 286 286 286 286 286 286 285 285 285 285 285 285 285 285 285 285 285 285 284 284 284 284 284 283 283 283
288 288 288 288 288 288 288 287 287 287 286 286 286 286 286 286 286 286 286 286 286 286 286 285 285 285 285 285 284 284 284 284 284 284 284 284 283 283 283 283 282 282
288 288 288 288 288 288 288 287 287 287 286 286 286 287 287 286 286 286 286 286 286 286 286 285 285 285 284 284 284 283 283 283 282 282 282 282 282 281 281 281 281 281
288 288 288 288 288 288 288 288 287 287 286 286 287 287 287 286 286 286 286 286 286 285 285 285 284 284 284 284 283 283 282 282 281 281 281 280 280 280 280 280 280 279
289 288 288 288 288 288 288 287 287 287 287 287 287 287 286 286 286 286 286 286 285 285 284 284 283 283 283 283 282 282 281 281 280 280 280 280 279 279 279 279 279 279
289 288 288 288 288 288 288 287 287 287 287 287 287 286 286 286 286 286 285 285 284 284 283 283 283 283 282 281 281 281 280 280 279 279 279 279 279 279 279 279 279 279
289 288 288 288 288 288 288 287 287 287 287 287 286 286 286 286 285 285 284 284 283 283 283 283 282 282 281 280 280 279 279 279 279 279 279 279 279 278 278 278 278 278
289 289 288 288 288 288 288 287 287 287 287 287 286 286 286 285 285 284 284 283 283 283 282 282 281 280 280 279 279 279 278 278 278 278 278 278 278 278 278 278 278 278
289 289 289 288 288 288 288 287 287 287 287 286 286 286 285 285 284 283 283 283 283 282 281 281 280 280 279 279 279 278 278 278 278 278 278 278 278 278 278 277 278 278
289 289 289 288 288 288 288 288 287 287 286 286 286 285 285 284 283 283 283 283 282 281 280 280 280 279 279 278 278 278 278 278 277 277 277 277 277 277 277 277 277 277
290 289 289 289 288 288 288 287 287 287 286 286 285 284 284 283 283 283 283 282 281 280 280 279 279 279 278 278 278 278 278 277 277 277 277 277 277 277 277 277 277 277
289 289 289 289 288 288 288 287 287 286 286 285 284 283 283 283 283 283 282 281 280 279 279 278 278 278 278 278 278 278 277 277 276 276 276 276 276 276 276 276 277 277
289 289 289 289 288 288 288 287 287 286 286 285 284 283 283 283 282 281 280 280 279 279 278 278 278 278 278 278 278 278 277 276 276 276 276 276 276 276 276 276 276 277
Wind_Speed
18 18 19 19 20 21 21 21 21 21 22 23 23 24 24 25 25 25 25 25 25 25 25 25 25 25 25 25 25 25 25 25 26 26 27 28 30 31 32 33 33 34
18 18 18 18 19 20 20 21 21 21 22 22 22 23 23 24 24 24 25 25 26 26 27 27 27 27 27 27 27 27 27 27 27 28 28 28 28 28 29 30 31 32
17 17 18 18 19 19 20 20 20 21 22 22 22 23 23 24 24 25 25 26 26 27 28 29 29 29 29 29 30 30 30 30 30 30 31 31 30 30 30 30 30 31
17 17 17 18 18 19 19 19 20 20 21 22 23 23 24 24 25 25 26 27 27 28 29 30 30 31 32 32 32 32 33 33 33 33 33 33 34 34 33 33 33 33
17 17 17 17 18 19 19 19 20 20 21 22 22 23 24 25 26 27 27 28 29 29 30 30 31 32 33 34 34 35 35 36 36 37 37 37 37 38 38 37 36 36
16 16 17 17 18 18 19 19 20 20 21 21 22 23 24 25 26 27 28 29 30 31 31 32 32 33 33 34 35 36 36 37 38 38 39 40 40 41 42 42 42 41
17 17 17 17 17 17 18 19 19 20 20 21 22 23 23 24 25 26 28 29 29 30 32 32 33 34 34 35 36 37 37 38 39 39 40 41 41 42 43 45 46 46
18 18 18 18 17 17 17 17 17 18 19 20 21 22 23 25 25 26 27 28 29 30 31 32 33 34 35 37 38 39 40 40 41 42 42 43 43 44 44 45 47 49
19 18 18 17 17 16 16 16 16 17 17 19 20 21 22 24 25 26 27 28 29 31 32 33 34 35 36 38 39 40 41 42 44 45 46 47 47 48 48 48 49 50
19 18 17 17 16 16 16 16 16 17 18 19 20 20 22 23 25 27 28 30 32 33 34 35 36 37 38 39 40 41 42 44 45 46 47 49 50 50 51 51 52 52
17 17 17 17 17 16 16 16 17 18 20 21 22 23 24 26 27 28 30 32 34 35 37 38 39 40 40 41 42 43 44 46 47 48 49 50 51 51 51 52 53 54
17 17 17 17 18 18 18 18 19 20 22 24 25 27 28 29 30 31 33 34 36 37 38 39 40 41 42 43 44 45 46 47 48 50 51 52 53 53 53 53 53 54
18 18 18 19 19 20 20 20 21 23 24 26 27 29 31 32 33 34 35 36 37 38 39 40 40 41 41 42 43 45 46 47 49 50 51 53 54 55 55 55 55 54
20 20 20 21 21 22 22 23 24 25 26 27 29 31 32 34 34 36 37 38 39 40 40 41 42 43 43 43 44 44 45 47 48 50 52 53 54 55 55 55 56 56
21 22 22 22 23 24 24 25 26 27 28 29 30 32 33 34 35 36 38 39 40 41 41 42 43 44 45 45 46 46 47 48 49 50 52 53 54 55 55 54 55 55
22 23 24 24 24 25 26 27 28 28 29 30 31 33 34 35 36 37 38 40 41 42 42 43 44 45 45 46 47 47 48 49 51 51 51 52 53 54 55 54 53 52
23 24 25 25 26 26 27 28 29 30 31 31 32 34 35 35 37 38 39 40 41 42 43 44 45 45 46 47 47 47 48 49 51 52 51 50 50 51 52 52 51 49
24 25 25 26 27 27 28 28 30 31 32 33 34 35 36 37 38 39 40 41 42 43 44 45 46 47 47 48 47 47 48 49 50 51 51 50 50 49 50 50 49 48
25 26 26 27 27 28 28 29 31 32 33 34 35 36 37 38 39 40 41 42 42 44 46 47 48 49 48 48 48 48 48 48 48 48 49 49 49 49 48 49 49 49
26 26 27 27 28 28 29 30 32 33 34 35 36 37 38 40 41 42 42 43 44 45 48 49 50 49 48 48 48 48 48 47 46 46 46 47 47 48 48 48 49 49
26 26 27 27 28 29 30 32 34 35 36 36 37 38 40 40 41 43 43 45 46 47 49 51 51 49 48 48 49 49 48 47 45 45 46 46 47 47 47 48 49 49
26 26 26 27 28 29 31 33 36 36 37 37 38 40 41 41 42 43 45 47 48 49 50 51 52 50 49 49 50 49 48 46 45 45 46 46 48 48 48 48 49 50
27 27 27 27 28 31 33 35 37 37 38 38 40 41 41 42 43 45 47 49 50 50 51 52 53 52 50 50 50 50 48 47 46 46 46 46 48 48 49 50 50 51
27 28 28 29 30 32 35 37 38 38 39 39 40 41 42 43 46 48 50 51 51 51 51 52 54 54 52 51 50 50 48 46 45 46 46 47 49 49 50 50 52 53
28 29 29 30 31 33 35 37 38 39 39 39 40 42 43 46 48 50 52 52 52 52 52 52 54 54 53 51 51 50 48 46 45 45 46 48 49 49 51 52 53 55
29 30 31 31 33 34 36 38 39 39 40 40 41 43 46 49 50 50 52 54 53 53 52 52 53 53 53 52 51 50 49 47 45 45 47 49 50 50 51 52 53 55
Wind_Direction
41 40 39 37 37 36 36 34 33 31 29 28 27 26 25 23 21 19 18 17 17 16 15 14 13 11 10 8 6 4 2 360 357 353 350 346 343 341 338 336 334 331
37 36 36 35 34 33 31 30 29 28 28 27 26 25 23 20 17 15 13 12 11 11 11 10 9 8 8 6 5 3 1 359 358 356 355 352 349 346 342 339 336 332
33 32 32 31 31 30 28 27 25 24 24 23 22 21 19 18 16 14 12 10 8 7 6 6 5 4 4 3 1 0 359 358 356 355 353 352 350 348 346 343 340 337
27 27 28 28 27 27 24 22 20 19 19 17 17 16 15 14 13 11 10 9 8 7 4 3 2 1 360 359 358 357 356 355 354 352 351 349 348 347 346 343 341 339
20 20 21 23 22 22 20 18 17 16 14 13 12 10 9 8 7 6 6 5 4 4 3 1 360 359 357 356 355 354 353 352 351 349 348 347 346 345 344 342 339 338
12 13 14 15 15 14 13 11 11 11 11 10 9 6 5 4 2 2 1 0 0 359 359 359 358 357 356 354 353 352 351 350 348 347 345 344 343 341 341 340 338 337
2 4 6 7 7 6 5 4 3 3 4 4 3 2 1 1 360 359 358 357 357 357 356 356 355 355 354 353 352 350 349 348 346 345 344 342 341 339 338 337 336 335
354 356 356 356 356 356 356 357 356 356 357 357 357 357 356 357 356 356 357 356 355 355 354 354 353 353 352 352 351 349 348 347 345 344 342 340 339 337 336 335 333 332
344 345 346 345 345 346 346 348 348 348 350 350 351 352 351 352 352 352 353 353 353 353 352 352 351 351 351 350 349 348 346 345 344 342 341 340 338 337 335 334 331 330
333 333 334 335 337 339 340 340 340 341 342 343 344 345 346 347 348 348 349 350 350 350 349 350 349 348 348 347 347 346 344 343 342 341 340 339 337 336 335 333 331 329
325 324 325 328 331 334 335 334 334 334 336 338 340 342 344 345 345 346 346 347 347 347 346 346 345 345 345 344 344 343 342 341 340 338 337 336 334 333 332 331 329 328
320 320 323 326 329 330 330 329 329 331 334 337 339 340 342 342 342 342 342 342 343 343 342 341 341 340 340 340 339 338 338 337 335 334 333 332 331 330 329 328 326 325
318 318 321 325 326 327 327 327 328 329 332 335 336 337 338 338 338 338 338 338 338 338 338 337 336 336 336 335 334 334 333 331 330 329 328 327 326 325 324 324 322 322
315 315 317 321 322 323 324 325 326 327 329 331 333 334 334 334 334 334 334 334 334 333 333 333 332 332 332 332 331 330 329 327 326 325 323 322 321 320 320 319 318 317
312 311 314 316 317 319 321 321 322 324 325 327 330 331 331 331 330 330 330 330 330 329 329 329 329 329 329 329 328 327 326 324 322 321 320 319 317 316 316 315 314 313
308 308 310 312 313 315 317 318 318 319 320 323 326 327 327 327 326 326 326 326 325 325 324 324 324 324 325 325 325 324 322 321 320 318 317 316 315 314 313 312 311 310
306 306 306 308 310 312 314 315 314 314 316 319 321 323 323 322 321 322 322 321 320 320 319 320 320 320 321 321 321 320 319 319 318 316 315 313 312 311 310 310 309 307
305 304 304 305 307 309 310 311 310 310 313 315 317 318 317 316 316 316 316 316 315 315 316 316 317 318 318 318 318 318 318 317 316 314 312 311 309 307 306 306 306 306
304 302 302 303 305 307 306 306 306 307 310 312 313 312 311 311 311 311 311 312 312 313 314 314 315 316 316 316 316 316 317 316 313 310 308 307 306 305 304 304 304 304
303 301 301 302 303 304 303 301 303 305 307 308 307 306 305 306 307 307 309 310 311 312 312 312 313 314 315 315 315 315 316 314 310 307 305 303 302 302 302 302 303 303
303 302 301 301 302 301 299 298 301 303 304 303 302 301 301 302 304 306 308 309 310 311 311 311 312 313 314 315 315 315 315 312 308 305 303 302 301 301 301 301 302 303
302 301 299 299 300 298 296 296 299 300 299 299 297 297 299 301 303 305 307 308 309 309 310 310 312 313 314 314 314 315 314 311 307 304 303 302 302 302 302 302 302 302
300 300 299 298 297 296 295 296 297 296 296 295 295 295 298 300 303 305 306 307 307 309 310 311 312 313 314 314 314 314 313 310 307 305 304 302 302 303 303 303 302 302
295 297 299 299 298 297 297 296 295 294 293 293 293 295 298 301 304 305 305 305 307 309 311 311 311 312 313 314 314 313 312 310 307 305 304 303 303 303 303 303 302 301
291 294 297 298 299 299 298 296 294 293 292 292 293 296 300 302 303 304 304 306 308 310 311 311 311 312 313 313 312 312 312 310 307 305 304 303 303 303 302 302 301 301
289 292 294 297 299 299 298 296 294 292 292 292 295 298 301 302 302 304 306 307 309 310 311 311 311 311 312 312 312 312 312 311 308 305 304 304 303 303 302 301 301 300